Track STARLINK-1845 now! 10-day predictions STARLINK-1845 is classified as:
1 47135U 20088P 21024.91667824 .00065052 00000-0 71103-3 0 9993 2 47135 53.0555 54.5621 0001524 32.3640 263.2647 15.62737795 10348